Location: Hylvaty SDH
(49.9612°N, 16.4057°E)
Time: 01:39:33
(UTC+02:00)

A-11 Canister half - All Passes

Search period start: 02 October 2020 00:00
Search period end: 12 October 2020 00:00
Orbit: 1527 x 1682 km, 47.3° (Epoch: 01 October)

Date Brightness Start Highest point End Pass type
(mag) Time Alt. Az. Time Alt. Az. Time Alt. Az.
02 Oct - 02:03:29 10° W 02:12:51 75° S 02:22:31 10° ESE visible
02 Oct - 04:08:19 10° W 04:17:15 48° SSW 04:26:30 10° SE visible
02 Oct - 06:14:34 10° W 06:20:32 18° SW 06:26:37 10° SSW visible
02 Oct - 21:34:32 10° SSW 21:42:35 35° SE 21:50:44 10° E visible
02 Oct - 23:37:18 10° WSW 23:46:30 67° SSE 23:55:54 10° E visible
03 Oct - 01:41:51 10° W 01:51:13 76° S 02:00:51 10° ESE visible
03 Oct - 03:46:40 10° W 03:55:40 50° SSW 04:04:54 10° SE visible
03 Oct - 05:52:46 10° W 05:58:59 20° SW 06:05:19 10° S visible
03 Oct - 21:13:05 10° SSW 21:21:01 33° SE 21:29:02 10° E visible
03 Oct - 23:15:43 10° WSW 23:24:53 66° SSE 23:34:14 10° E visible
04 Oct - 01:20:14 10° W 01:29:35 76° S 01:39:11 10° ESE visible
04 Oct - 03:25:02 10° W 03:34:03 51° SSW 03:43:20 10° SE visible
04 Oct - 05:30:59 10° W 05:37:26 21° SW 05:44:00 10° S visible
04 Oct - 20:51:38 10° SSW 20:59:28 32° SE 21:07:21 10° E visible
04 Oct - 22:54:07 10° WSW 23:03:16 65° SSE 23:12:35 10° E visible
05 Oct - 00:58:37 10° W 01:07:56 76° S 01:17:32 10° ESE visible
05 Oct - 03:03:25 10° W 03:12:26 53° SSW 03:21:44 10° SE visible
05 Oct - 05:09:13 10° W 05:15:52 22° SW 05:22:40 10° S visible
05 Oct - 20:30:12 10° SSW 20:37:54 30° SE 20:45:38 10° E visible
05 Oct - 22:32:32 10° WSW 22:41:39 63° SSE 22:50:56 10° E visible
06 Oct - 00:36:59 10° W 00:46:18 77° S 00:55:52 10° E visible
06 Oct - 02:41:46 10° W 02:50:49 54° SSW 03:00:08 10° SE visible
06 Oct - 04:47:28 10° W 04:54:19 23° SW 05:01:18 10° S visible
06 Oct - 20:08:46 10° SSW 20:16:20 29° SE 20:23:56 10° E visible
06 Oct - 22:10:57 10° SW 22:20:02 62° SSE 22:29:16 10° E visible
07 Oct - 00:15:21 10° W 00:24:40 77° S 00:34:12 10° E visible
07 Oct - 02:20:09 10° W 02:29:13 56° SSW 02:38:32 10° SE visible
07 Oct - 04:25:44 10° W 04:32:45 24° SW 04:39:56 10° S visible
07 Oct - 19:47:22 10° S 19:54:47 28° SE 20:02:13 10° E visible
07 Oct - 21:49:21 10° SW 21:58:26 61° SSE 22:07:37 10° E visible
07 Oct - 23:53:44 10° W 00:03:02 77° S 00:12:33 10° E visible
08 Oct - 01:58:31 10° W 02:07:36 57° SSW 02:16:56 10° SE visible
08 Oct - 04:04:00 10° W 04:11:11 25° SW 04:18:32 10° S visible
08 Oct - 19:25:58 10° S 19:33:14 27° SE 19:40:31 10° E visible
08 Oct - 21:27:46 10° SW 21:36:49 59° SSE 21:45:58 10° E visible
08 Oct - 23:32:06 10° W 23:41:24 77° S 23:50:53 10° E visible
09 Oct - 01:36:53 10° W 01:45:59 58° SSW 01:55:19 10° SE night (unlit)
09 Oct - 03:42:17 10° W 03:49:37 26° SW 03:57:07 10° S visible
09 Oct - 19:04:34 10° S 19:11:41 25° SE 19:18:47 10° E visible
09 Oct - 21:06:12 10° SW 21:15:13 58° SSE 21:24:19 10° E visible
09 Oct - 23:10:28 10° W 23:19:46 77° S 23:29:14 10° E visible
10 Oct - 01:15:15 10° W 01:24:22 60° SSW 01:33:42 10° SE visible
10 Oct - 03:20:35 10° W 03:28:04 27° SW 03:35:42 10° S visible
10 Oct - 18:43:12 10° S 18:50:08 24° SE 18:57:03 10° E visible
10 Oct - 20:44:37 10° SW 20:53:37 56° SSE 21:02:40 10° E visible
10 Oct - 22:48:51 10° W 22:58:08 77° S 23:07:34 10° E visible
11 Oct - 00:53:38 10° W 01:02:46 61° SSW 01:12:06 10° SE visible
11 Oct - 02:58:53 10° W 03:06:29 29° SW 03:14:16 10° S night (unlit)
11 Oct - 18:21:51 10° S 18:28:35 23° SE 18:35:19 10° E daylight
11 Oct - 20:23:03 10° SW 20:32:01 55° SSE 20:41:01 10° E visible
11 Oct - 22:27:13 10° W 22:36:30 77° S 22:45:56 10° E visible
